www.pogodaiklimat.ru

Погода и климат >> Архив погоды >> Ирак >> Basrah


ПОГОДА в Basrah

  • Прогноз погоды в Basrah
  • Монитор погоды в Basrah
  • Климат города

АРХИВ ПОГОДЫ в Basrah

Время (UTC), дата Ветер
(напр.,м/с)
 
Видим.   Явления Облачность Т
(С)
Тd
(С)
f
(%)
Тe
(С)
Тes
(С)
Комфортность P
(гПа)
Po
(гПа)
Тmin
(С)
Tmax
(С)
R
(мм)
R24
(мм)
S
(см)
00 11.01 штиль 0 10 км ясно +7.0 -1.5 55 +7 +7 1025.1 1025.0
06 11.01 штиль 0 10 км 3/0
[Ci fib]
+10.2 -1.6 44 +10 +15 1027.7 1028.0 +4.6
09 11.01 штиль 0 10 км 3/0
[Ci fib]
+19.6 +1.8 31 +20 +30 1026.1 1026.0
12 11.01 штиль 0 10 км 6/0
[Ac trans Ci fib]
+21.8 +0.3 24 +21 +24 комфорт 1024.5 1025.0
18 11.01 штиль 0 10 км ясно +10.0 +3.1 62 +10 +10 1025.1 1025.0 +22.6
21 11.01 штиль 0 10 км ясно +8.0 +3.3 72 +7 +7 1024.3 1024.0
06 12.01 штиль 0 10 км ясно +10.4 +2.5 58 +10 +15 1025.5 1026.0 +5.2
09 12.01 ЮВ 2 10 км ясно +21.0 +1.6 28 +22 +30 комфорт 1023.6 1024.0
12 12.01 ЮВ 3 10 км ясно +22.4 +0.7 24 +22 +24 комфорт 1021.5 1022.0
15 12.01 ЮВ 3 10 км 1/0
[Ac trans]
+17.8 +1.3 33 +18 +18 1021.6 1022.0
18 12.01 ЮВ 3 10 км ясно +13.2 +7.5 68 +12 +12 1022.0 1022.0 +22.6
00 13.01 ЮВ 3 2000 м дымка ясно +10.0 +9.2 95 +8 +8 1020.7 1021.0
03 13.01 штиль 0 <100 м туман ?/? +8.2 +7.7 97 +7 +7 1020.8 1021.0
06 13.01 ЮВ 3 <100 м туман ?/? +8.6 +8.1 97 +6 +6 1021.8 1022.0 +7.6
09 13.01 ЮВ 2 10 км ясно +21.2 +7.6 41 +22 +31 комфорт 1020.5 1021.0
12 13.01 ЮВ 3 10 км ясно +24.6 +2.2 23 +24 +26 комфорт 1017.9 1018.0
15 13.01 ЮВ 2 10 км 3/0
[Ci sp]
+21.0 +6.2 38 +23 +23 комфорт 1018.5 1019.0
18 13.01 Ю 2 10 км ясно +14.0 +8.0 67 +14 +14 1019.3 1019.0 +25.0
00 14.01 Ю 2 10 км ясно +10.0 +9.2 95 +8 +8 1017.4 1017.0
03 14.01 ЮВ 2 2000 м дымка ?/? +8.4 +7.5 94 +6 +6 1017.0 1017.0
09 14.01 Ю 4 10 км ясно +20.0 +12.2 61 +22 +28 комфорт 1016.4 1016.0
12 14.01 ЮВ 4 10 км 3/0
[Ac trans]
+25.0 +1.6 22 +24 +25 комфорт 1013.5 1014.0
15 14.01 Ю 5 10 км ясно +19.2 -1.1 25 +19 +19 1014.1 1014.0
18 14.01 ЮВ 4 10 км ясно +15.0 +9.6 70 +14 +14 1015.4 1015.0 +25.6
21 14.01 ЮВ 5 10 км ясно +14.0 +9.3 73 +12 +12 1016.3 1016.0
00 15.01 штиль 0 10 км ясно +11.2 +4.1 62 +11 +11 1017.0 1017.0
03 15.01 штиль 0 10 км 5/0
[Ac trans]
+10.2 +2.8 60 +10 +10 1018.9 1019.0
06 15.01 СЗ 2 10 км 3/0
[Ac trans]
+13.2 +2.3 48 +13 +16 1021.2 1021.0 +10.0
09 15.01 З 5 10 км ясно +21.4 +0.9 26 +21 +26 комфорт 1020.9 1021.0
12 15.01 З 5 10 км ясно +22.8 +2.2 26 +22 +24 комфорт 1019.3 1019.0
15 15.01 З 3 10 км ясно +18.4 +4.8 41 +19 +19 1020.3 1020.0
21 15.01 З 2 10 км ясно +13.4 +5.8 60 +13 +13 1021.8 1022.0
00 16.01 З 2 10 км ясно +10.0 +4.1 67 +9 +9 1021.8 1022.0
06 16.01 З 3 10 км ясно +10.8 +3.0 59 +9 +12 1024.0 1024.0 +8.0
09 16.01 З 6 10 км 1/0
[Ci fib]
+19.7 +4.2 36 +20 +23 1022.5 1023.0
12 16.01 З 5 10 км 1/0
[Ci fib]
+20.6 +2.9 31 +21 +22 комфорт 1020.1 1020.0
15 16.01 З 4 10 км ясно +17.2 +4.7 44 +17 +17 1020.1 1020.0
18 16.01 З 4 10 км ясно +15.0 +4.8 50 +14 +14 1021.1 1021.0 +21.4
21 16.01 З 3 10 км ясно +10.4 +4.4 66 +9 +9 1020.1 1020.0
00 17.01 штиль 0 10 км 3/0
[Ci fib]
+9.4 +3.4 66 +9 +9 1018.5 1019.0
03 17.01 штиль 0 10 км 3/0
[Ci fib]
+8.0 +3.3 72 +7 +7 1018.5 1019.0
06 17.01 З 3 10 км 6/0
[Ci sp]
+10.8 +3.0 59 +9 +12 1019.4 1019.0 +8.0
09 17.01 СЗ 4 10 км 6/0
[Ci sp]
+19.6 +3.7 35 +20 +25 1017.8 1018.0
12 17.01 СЗ 3 10 км 6/0
[Ci sp]
+20.6 +2.9 31 +21 +24 комфорт 1015.8 1016.0
15 17.01 штиль 0 10 км 5/0
[Ac trans Ci fib]
+16.0 +5.7 50 +16 +16 1015.8 1016.0
18 17.01 штиль 0 10 км ясно +12.6 +3.7 55 +12 +12 1016.7 1017.0 +21.5
21 17.01 штиль 0 10 км ясно +9.0 +3.5 68 +8 +8 1016.7 1017.0

 

Местоположение метеостанции Basrah (Ирак): широта 30.57 долгота 47.78 высота над уровнем моря 2 м.

В архиве по умолчанию представлена погода в Basrah за последнюю неделю. Архивные данные за месяц целиком и за предыдущие месяцы, начиная с января 2011 года, Вы можете получить, выбрав интересующий диапазон дат из раскрывающегося списка и нажав кнопку "Ввод!".

Внимание! Время в таблицах - всемирное. Для получения местного времени необходимо прибавить поправку, которая в Basrah равна 3 ч.

Смотрите также архив погоды в соседних городах и на ближайших метеорологических станциях:

Погода в Basrah Airport (Ирак) (6 км)
Погода в Abadan (Иран) (50 км)
Погода в Abdaly (Кувейт) (55 км)
Погода в Sabriyah (Кувейт) (91 км)
Погода в Mitribah (Кувейт) (92 км)
Погода в Fao (Ирак) (95 км)
Погода в Bubiyan (Кувейт) (106 км)
Погода в Jal Aliyah (Кувейт) (108 км)
Погода в Ahwaz (Иран) (120 км)
Погода в Failaka Island (Кувейт) (131 км)

Пояснения к столбцам:

Ветер - указаны скорость ветра в м/с - средняя за 10 мин, порывы в срок и между сроками (в фигурных скобках) и направление, откуда дует ветер: С - северный, СВ - северо-восточный, В - восточный, ЮВ - юго-восточный, Ю - южный, ЮЗ - юго-западный, З - западный, СЗ - северо-западный.
Видимость - горизонтальная дальность видимости в метрах или километрах. При видимости от 1 до 10 км при отсутствии осадков обычно наблюдается дымка, при ухудшении видимости до 1 км и менее - туман. В сухую погоду видимость может ухудшаться дымом, пылью или мглою.
Явления - указаны атмосферные явления, наблюдавшиеся в срок или в последний час перед сроком; фигурными скобками обозначены явления, наблюдавшиеся между сроками (за 1-3 часа до срока); квадратными скобками обозначены град или гололедные отложения с указанием их диаметра в мм.
Облачность - указаны через наклонную черту общая и нижняя облачность в баллах и высота нижней границы облаков в метрах; квадратными скобками обозначены формы облаков: Ci - перистые, Cs - перисто-слоистые, Cc - перисто-кучевые, Ac - высококучевые, As - высокослоистые, Sc - слоисто-кучевые, Ns - слоисто-дождевые, Cu - кучевые, Cb - кучево-дождевые. Подробнее классификацию облаков см. в Атласе облаков (PDF).
T - Температура воздуха - температура, измеренная на высоте 2 м над землей.
Td - Температура точки росы - температура, при понижении до которой содержащийся в воздухе водяной пар достигнет насыщения.
f - Относительная влажность воздуха - влажноcть воздуха, измеренная на высоте 2 м над землей.
Te - Эффективная температура - температура, которую ощущает одетый по сезону человек в тени. Характеристика душности погоды. При расчете учитывается влияние влажности воздуха и скорости ветра на теплоощущения человека.
Tes - Эффективная температура на солнце - температура, которую ощущает человек, с поправкой на солнечный нагрев. Характеристика знойности погоды. Зависит от высоты солнца над горизонтом, облачности и скорости ветра. Ночью, в пасмурную погоду, а также при ветре 12 м/с и более поправка равна нулю.
P - Атмосферное давление - приведенное к уровню моря атмосферное давление.
Po - Атмосферное давление - измеренное на уровне метеостанции атмосферное давление.
Tmin - Минимальная температура - минимум температуры воздуха на высоте 2 м над землей.
Tmax - Максимальная температура - максимум температуры воздуха на высоте 2 м над землей.
R - Количество осадков - Количество выпавших осадков за период времени, мм. При наведении курсора мыши на число - период времени, за который выпало указанное количество осадков.
R24 - Количество осадков - Количество выпавших осадков за 24 часа, мм.
S - Снежный покров - Высота снежного покрова, см. При наведении курсора мыши на число - состояние снежного покрова и степень покрытия местности в баллах.